DL3TR-13 Weather Reports


Display with metric or nautical units.
time (UTC)temp
F
wind
direction
speed
MPH
gust
MPH
rain 1hr
in
rain 24hr
in
rain mn
in
humidity
%
barometer
mb
20260507000311 44 207 1.0 3.0 0.00 0.00 0.00 90 1010.4
20260506235311 45 207 1.0 3.0 0.00 0.00 0.00 90 1010.4
20260506234311 45 206 2.0 5.0 0.00 0.00 0.00 90 1010.4
20260506233311 45 192 0.0 1.0 0.00 0.00 0.00 90 1010.4
20260506232311 45 191 0.0 2.0 0.00 0.00 0.00 90 1010.5
20260506231311 44 204 0.0 4.0 0.00 0.00 0.00 90 1010.3
20260506230311 44 219 0.0 4.0 0.00 0.00 0.00 89 1010.2
20260506225311 45 206 2.0 6.0 0.00 0.00 0.00 88 1010.2
20260506224311 46 210 3.0 6.0 0.00 0.00 0.00 88 1010.2
20260506223311 46 216 3.0 7.0 0.00 0.00 0.00 88 1010.2
20260506222311 46 211 3.0 7.0 0.00 0.00 0.00 88 1010.1
20260506221311 46 213 5.0 7.0 0.00 0.00 0.00 88 1010.2
20260506220311 46 223 4.0 7.0 0.00 0.00 0.00 90 1010.2
20260506215311 46 216 3.0 8.0 0.00 0.05 0.05 91 1010.2
20260506214311 45 219 3.0 5.0 0.00 0.05 0.05 90 1010.1
20260506213311 46 220 1.0 5.0 0.00 0.05 0.05 89 1010.0
20260506212311 46 213 3.0 7.0 0.00 0.05 0.05 90 1010.0
20260506211311 46 227 3.0 6.0 0.00 0.05 0.05 89 1010.0
20260506210311 46 214 3.0 7.0 0.00 0.05 0.05 90 1009.9
20260506205311 46 196 4.0 6.0 0.00 0.05 0.05 90 1009.8
20260506204326 46 213 3.0 5.0 0.00 0.05 0.05 91 1009.8
20260506203311 46 211 2.0 4.0 0.00 0.05 0.05 91 1009.8
20260506202310 46 205 3.0 7.0 0.00 0.05 0.05 91 1009.7
20260506201311 46 202 3.0 4.0 0.00 0.05 0.05 90 1009.6
20260506200311 46 218 2.0 6.0 0.00 0.05 0.05 90 1009.5
20260506195311 46 215 3.0 4.0 0.00 0.05 0.05 90 1009.5
20260506194310 47 203 1.0 6.0 0.00 0.05 0.05 89 1009.5
20260506193311 47 231 4.0 5.0 0.00 0.05 0.05 89 1009.4
20260506192311 47 214 2.0 7.0 0.00 0.05 0.05 90 1009.2
20260506191311 47 202 2.0 4.0 0.00 0.05 0.05 90 1009.1
20260506190311 47 215 1.0 4.0 0.00 0.05 0.05 89 1008.8
20260506185311 47 221 2.0 4.0 0.00 0.05 0.05 89 1008.6
20260506184310 47 213 3.0 4.0 0.00 0.05 0.05 89 1008.6
20260506183311 47 226 2.0 4.0 0.00 0.05 0.05 89 1008.6
20260506182310 47 226 2.0 6.0 0.00 0.05 0.05 88 1008.4
20260506181311 48 228 3.0 7.0 0.00 0.05 0.05 87 1008.2
20260506180310 49 238 4.0 9.0 0.00 0.05 0.05 86 1008.2
20260506175310 49 240 5.0 8.0 0.00 0.05 0.05 87 1008.1
20260506174311 50 240 5.0 6.0 0.00 0.05 0.05 87 1008.2
20260506173310 50 235 3.0 8.0 0.00 0.05 0.05 87 1008.0
20260506172310 50 203 4.0 9.0 0.00 0.05 0.05 87 1008.0
20260506171310 50 240 5.0 11.0 0.00 0.05 0.05 87 1007.8
20260506170311 50 219 7.0 11.0 0.00 0.05 0.05 86 1007.6
20260506165310 51 216 6.0 8.0 0.00 0.05 0.05 87 1007.6
20260506164310 50 221 4.0 7.0 0.00 0.05 0.05 89 1007.2
20260506163310 49 231 4.0 9.0 0.00 0.05 0.05 89 1007.6
20260506162310 49 227 6.0 8.0 0.00 0.05 0.05 88 1007.6
20260506161310 49 236 4.0 12.0 0.00 0.05 0.05 89 1007.9
20260506160310 49 235 7.0 13.0 0.00 0.05 0.05 88 1007.9
20260506155311 49 199 7.0 15.0 0.00 0.05 0.05 88 1007.8
20260506154310 50 230 7.0 13.0 0.00 0.05 0.05 88 1007.6
20260506153310 50 239 6.0 16.0 0.01 0.05 0.05 89 1007.1
20260506152311 49 210 7.0 13.0 0.01 0.05 0.05 88 1006.9
20260506151310 50 227 6.0 18.0 0.01 0.05 0.05 90 1006.8
20260506150310 49 234 8.0 18.0 0.01 0.05 0.05 88 1006.6
20260506145310 49 279 7.0 23.0 0.01 0.05 0.05 87 1006.5
20260506144311 50 252 12.0 23.0 0.01 0.05 0.05 83 1006.1
20260506143311 54 219 8.0 23.0 0.01 0.04 0.04 76 1005.8
20260506142310 61 232 7.0 7.0 0.01 0.04 0.04 76 1004.8
20260506141310 60 234 4.0 6.0 0.01 0.04 0.04 76 1004.7
20260506140310 61 231 2.0 4.0 0.01 0.04 0.04 75 1004.4
20260506135311 60 170 2.0 4.0 0.02 0.04 0.04 73 1004.3
20260506134311 59 196 2.0 5.0 0.02 0.04 0.04 73 1004.4
20260506133310 58 144 1.0 6.0 0.02 0.03 0.03 82 1004.4
20260506132311 56 89 2.0 7.0 0.03 0.03 0.03 84 1004.5
20260506131310 56 94 4.0 3.0 0.03 0.03 0.03 85 1004.5
20260506130310 54 221 1.0 2.0 0.03 0.03 0.03 84 1005.0
20260506125310 55 221 1.0 2.0 0.02 0.02 0.02 84 1005.1
20260506124310 55 221 0.0 5.0 0.02 0.02 0.02 82 1005.0
20260506123310 57 247 2.0 3.0 0.01 0.01 0.01 78 1004.9
20260506122310 58 246 2.0 3.0 0.00 0.00 0.00 71 1004.7
20260506121310 59 328 1.0 4.0 0.00 0.00 0.00 68 1004.4
20260506120310 59 5 1.0 6.0 0.00 0.00 0.00 67 1004.2
20260506115310 59 5 4.0 7.0 0.00 0.00 0.00 67 1004.1
20260506114310 60 348 3.0 9.0 0.00 0.00 0.00 66 1003.9
20260506113310 59 338 2.0 5.0 0.00 0.00 0.00 67 1004.1
20260506112310 59 315 2.0 6.0 0.00 0.00 0.00 66 1004.1
20260506111310 59 5 3.0 5.0 0.00 0.00 0.00 68 1004.6
20260506110310 59 340 2.0 7.0 0.00 0.00 0.00 66 1004.3
20260506105310 60 350 3.0 5.0 0.00 0.00 0.00 66 1004.5
20260506104311 60 346 0.0 8.0 0.00 0.00 0.00 67 1004.6
20260506103310 60 355 2.0 6.0 0.00 0.00 0.00 68 1004.6
20260506102310 60 348 1.0 5.0 0.00 0.00 0.00 69 1004.6
20260506101310 59 346 2.0 7.0 0.00 0.00 0.00 71 1004.7
20260506100310 58 347 4.0 6.0 0.00 0.00 0.00 75 1004.6
20260506095310 57 348 3.0 5.0 0.00 0.00 0.00 75 1004.9
20260506094310 56 355 1.0 7.0 0.00 0.00 0.00 73 1004.7
20260506093310 56 346 3.0 4.0 0.00 0.00 0.00 76 1004.9
20260506092310 56 5 3.0 3.0 0.00 0.00 0.00 76 1005.1
20260506091310 56 350 1.0 5.0 0.00 0.00 0.00 75 1005.1
20260506090310 56 17 3.0 6.0 0.00 0.00 0.00 76 1005.1
20260506085310 55 315 3.0 3.0 0.00 0.00 0.00 78 1005.1
20260506084310 55 315 1.0 4.0 0.00 0.00 0.00 79 1005.1
20260506083310 55 360 0.0 5.0 0.00 0.00 0.00 80 1005.1
20260506082310 55 41 2.0 4.0 0.00 0.00 0.00 79 1005.0
20260506081310 55 28 0.0 5.0 0.00 0.00 0.00 81 1005.0
20260506080310 54 20 3.0 5.0 0.00 0.00 0.00 83 1004.9
20260506073311 52 80 0.0 0.0 0.00 0.00 0.00 88 1005.1
20260506072325 52 80 0.0 3.0 0.00 0.00 0.00 89 1005.1
20260506071310 51 81 1.0 2.0 0.00 0.00 0.00 90 1005.1
20260506070310 51 81 1.0 5.0 0.00 0.00 0.00 90 1004.9
20260506062310 50 101 0.0 2.0 0.00 0.00 0.00 91 1005.4
20260506061310 50 101 1.0 2.0 0.00 0.00 0.00 91 1005.4
20260506060310 49 101 0.0 3.0 0.00 0.00 0.00 91 1005.4
20260506051310 47 101 1.0 3.0 0.00 0.00 0.00 93 1005.6
20260506050310 47 101 0.0 2.0 0.00 0.00 0.00 94 1005.7
20260506044310 47 101 0.0 2.0 0.00 0.00 0.00 94 1005.9
20260506043311 46 101 1.0 2.0 0.00 0.00 0.00 93 1006.0
20260506042310 46 101 0.0 2.0 0.00 0.00 0.00 93 1006.1
20260506041310 46 101 1.0 3.0 0.00 0.00 0.00 93 1006.1
20260506040310 46 101 2.0 2.0 0.00 0.00 0.00 93 1006.3
20260506035310 46 101 1.0 3.0 0.00 0.00 0.00 93 1006.4
20260506034310 46 101 1.0 2.0 0.00 0.00 0.00 93 1006.4
20260506033311 47 101 0.0 2.0 0.00 0.00 0.00 93 1006.5
20260506032310 47 101 1.0 3.0 0.00 0.00 0.00 94 1006.5
20260506031310 47 101 2.0 3.0 0.00 0.00 0.00 94 1006.6
20260506030310 46 107 1.0 2.0 0.00 0.00 0.00 93 1006.8
20260506025310 47 107 0.0 2.0 0.00 0.00 0.00 93 1007.1
20260506024310 47 107 0.0 0.0 0.00 0.00 0.00 94 1007.1
20260506023311 46 107 0.0 0.0 0.00 0.00 0.00 93 1007.1
20260506022310 47 107 0.0 0.0 0.00 0.00 0.00 93 1007.2
20260506021310 47 107 0.0 3.0 0.00 0.00 0.00 93 1007.3
20260506020310 46 107 1.0 1.0 0.00 0.00 0.00 93 1007.3
20260506015310 46 107 0.0 0.0 0.00 0.00 0.00 92 1007.4
20260506014310 47 107 0.0 0.0 0.00 0.00 0.00 93 1007.4
20260506013311 47 107 0.0 2.0 0.00 0.00 0.00 93 1007.6
20260506012310 47 107 0.0 2.0 0.00 0.00 0.00 93 1007.6
20260506011310 47 107 2.0 2.0 0.00 0.00 0.00 93 1007.6
20260506010310 47 107 0.0 3.0 0.00 0.00 0.00 93 1007.6
20260506005310 47 107 2.0 2.0 0.00 0.00 0.00 93 1007.7
20260506004310 46 107 0.0 3.0 0.00 0.00 0.00 93 1007.8
20260506003310 46 107 1.0 3.0 0.00 0.00 0.00 93 1007.8
20260506002310 46 107 1.0 3.0 0.00 0.00 0.00 93 1007.8
20260506001310 47 107 1.0 3.0 0.00 0.00 0.00 93 1007.7